Hourly Data Report for October 02, 2018

CARBERRY CS
MANITOBA
Current Station Operator: ECCC - MSC

49°54'20.900" N
99°21'26.800" W
383.50 m
5010547
71170
WZE

Download Data

Hourly Data (October 2018)
Hourly Data Report for October 2, 2018
TIME
LST
Temp Definition
°C
Dew Point Definition
°C
Rel Hum Definition
%
Precip. Amount Definition
mm

Wind Dir Definition
10's deg

Wind Spd Definition
km/h
Visibility Definition
km
Stn Press Definition
kPa
Hmdx Definition


Wind Chill Definition


Weather Definition


00:00 7.3 4.9 85 0.0 26 5   96.98     LegendNANA
01:00 6.4 5.3 93 0.0 36 5   96.96     LegendNANA
02:00 6.1 5.3 95 0.0 3 5   96.98     LegendNANA
03:00 5.9 5.7 98 0.0 2 7   96.99     LegendNANA
04:00 5.8 5.6 99 0.0 8 7   96.96     LegendNANA
05:00 5.8 5.7 99 0.0 8 9   96.94     LegendNANA
06:00 5.6 5.3 98 0.0 8 9   96.92     LegendNANA
07:00 5.4 5.1 98 0.0 6 13   96.92     LegendNANA
08:00 5.3 4.3 94 0.0 6 11   96.93     LegendNANA
09:00 4.2 4.0 99 0.0 6 16   96.83     LegendNANA
10:00 4.1 4.0 99 0.0 6 15   96.82     LegendNANA
11:00 3.8 3.8 100 0.0 5 15   96.77     LegendNANA
12:00 3.7 3.6 99 0.0 4 16   96.70     LegendNANA
13:00 3.6 3.4 99 0.0 3 16   96.66     LegendNANA
14:00 3.4 1.6 88 0.0 3 20   96.61     LegendNANA
15:00 2.6 1.7 94 0.0 4 18   96.50     LegendNANA
16:00 2.0 1.3 95 0.0 4 21   96.39     LegendNANA
17:00 2.0 1.6 97 0.0 3 19   96.35     LegendNANA
18:00 1.6 1.4 99 0.0 2 19   96.34     LegendNANA
19:00 1.2 1.0 99 0.0 2 23   96.32     LegendNANA
20:00 1.1 0.8 98 0.0 3 21   96.30     LegendNANA
21:00 0.9 0.8 99 0.0 2 17   96.27     LegendNANA
22:00 0.9 0.8 100 0.0 2 15   96.20     LegendNANA
23:00 0.6 0.5 99 0.0 1 17   96.19     LegendNANA

Notes on Data Quality.

Legend

  • E = Estimated
  • M = Missing
  • NA = Not Available*
  • [empty] = Indicates an unobserved value
Date modified: